Weather History for Pian Rosa, Italy

Change the Weather History Date:

Monday, November 26, 2012

  Actual Average Record
Temperature  
Mean Temperature 22 °F -  
Max Temperature 24 °F 20 °F 62 °F (1996)
Min Temperature 19 °F 10 °F -5 °F (2010)
Degree Days  
Heating Degree Days 44    
Moisture  
Dew Point 20 °F    
Average Humidity 90    
Maximum Humidity 100    
Minimum Humidity 71    
Precipitation  
Precipitation 0.04 in - - ()
Sea Level Pressure  
Sea Level Pressure 29.95 in    
Wind  
Wind Speed 21 mph ()    
Max Wind Speed 31 mph    
Max Gust Speed -    
Visibility 0.1 miles    
Events Fog , Snow    
Averages and records for this station are not official NWS values.
T = Trace of Precipitation, MM = Missing Value Source: Averaged Metar Reports

Daily Weather History Graph

Daily Weather History Graph

Search for Another Location

Airport:

Trip Planner

Search our weather history database for the weather conditions in past years. The results will help you decide how hot, cold, wet, or windy it might be!

Date:

Astronomy

Nov. 26, 2012 Rise Set
Actual Time 7:44 AM CET 4:48 PM CET
Civil Twilight 7:11 AM CET 5:21 PM CET
Nautical Twilight 6:34 AM CET 5:58 PM CET
Astronomical Twilight 5:58 AM CET 6:34 PM CET
Moon 3:34 PM CET (11/26) 5:35 AM CET (11/26)
Length of Visible Light 10h 10m
Length of Day
9h 03m
Waxing Gibbous, 96% of the Moon is Illuminated
Nov 26
Waxing Gibbous
Nov 28
Full
Dec 6
Last Quarter
Dec 13
New
Dec 20
First Quarter

Hourly Weather History & Observations

Time (CET) Temp. Windchill Dew Point Humidity Pressure Visibility Wind Dir Wind Speed Gust Speed Precip Events Conditions
12:55 AM 26.6 °F 10.3 °F 21.2 °F 80% 30.06 in 0.2 mi SSW 29.9 mph - N/A Fog Light Freezing Fog
1:00 AM 26 °F - 22 °F 79%  in 0 mi SSW 29.9 mph - - Fog Heavy Fog
1:55 AM 26.6 °F 10.8 °F 23.0 °F 86% 30.06 in 0.2 mi SSW 27.6 mph - N/A Fog Light Freezing Fog
2:55 AM 24.8 °F 9.0 °F 23.0 °F 93% 30.06 in 0.5 mi SSW 25.3 mph - N/A Fog Light Freezing Fog
3:55 AM 23.0 °F 6.3 °F 23.0 °F 100% 30.04 in 0.1 mi South 26.5 mph - N/A Fog Light Freezing Fog
4:00 AM 24 °F - 22 °F 90%  in 0 mi South 26.5 mph - - Fog Heavy Fog
4:55 AM 23.0 °F 6.6 °F 23.0 °F 100% 30.04 in 0.1 mi South 25.3 mph - N/A Fog Light Freezing Fog
5:55 AM 23.0 °F 5.1 °F 23.0 °F 100% 30.01 in 0.1 mi South 31.1 mph - N/A Fog Light Freezing Fog
6:55 AM 23.0 °F 8.7 °F 23.0 °F 100% 30.01 in 0.1 mi SSW 18.4 mph - N/A Fog Light Freezing Fog
7:00 AM 23 °F - 22 °F 95%  in 0 mi SSW 18.4 mph - - Fog Heavy Fog
7:55 AM 23.0 °F 10.6 °F 21.2 °F 93% 30.01 in 0.5 mi South 13.8 mph - N/A Fog Light Freezing Fog
8:55 AM 23.0 °F 8.7 °F 21.2 °F 93% 30.01 in 0.5 mi South 18.4 mph - N/A Fog Light Freezing Fog
9:55 AM 24.8 °F 10.7 °F 19.4 °F 80% 30.01 in 0.5 mi South 19.6 mph - N/A Fog Light Freezing Fog
10:00 AM 24 °F - 18 °F 71%  in 0 mi South 19.6 mph - - Fog Heavy Fog
10:55 AM 24.8 °F 11.1 °F 19.4 °F 80% 29.98 in 0.1 mi SSE 18.4 mph - N/A Fog Light Freezing Fog
11:55 AM 21.2 °F 6.4 °F 19.4 °F 93% 29.98 in 0.1 mi SSE 18.4 mph - N/A Fog Light Freezing Fog
12:55 PM 23.0 °F 9.6 °F 19.4 °F 86% 29.95 in 0.1 mi South 16.1 mph - N/A Fog Light Freezing Fog
1:00 PM 23 °F - 19 °F 80%  in 0 mi South 16.1 mph - - Fog Heavy Fog
1:55 PM 21.2 °F 4.9 °F 19.4 °F 93% 29.95 in 0.1 mi South 23.0 mph - N/A Fog Light Freezing Fog
2:55 PM 21.2 °F 4.5 °F 19.4 °F 93% 29.92 in 0.1 mi SSE 24.2 mph - N/A Fog Light Freezing Fog
3:55 PM 21.2 °F 3.5 °F 19.4 °F 93% 29.92 in 0.1 mi South 27.6 mph - N/A Fog Light Freezing Fog
4:00 PM 21 °F - 19 °F 87%  in 0 mi South 27.6 mph - - Fog Heavy Fog
4:55 PM 21.2 °F 3.9 °F 19.4 °F 93% 29.89 in 0.1 mi South 26.5 mph - N/A Fog Light Freezing Fog
5:55 PM 21.2 °F 3.3 °F 17.6 °F 86% 29.89 in 0.1 mi South 28.8 mph - N/A Fog Light Freezing Fog
6:55 PM 19.4 °F 4.5 °F 17.6 °F 93% 29.89 in 0.1 mi South 17.3 mph - N/A Fog Light Freezing Fog
7:00 PM 20 °F - 17 °F 83%  in 0 mi South 17.3 mph - -   Unknown
7:55 PM 19.4 °F 5.5 °F 17.6 °F 93% 29.86 in 0.1 mi South 15.0 mph - N/A Fog Light Freezing Fog
8:55 PM 19.4 °F 5.0 °F 17.6 °F 93% 29.86 in 0.1 mi South 16.1 mph - N/A Fog , Snow Light Snow
9:55 PM 19.4 °F 4.1 °F 17.6 °F 93% 29.83 in 0.1 mi South 18.4 mph - N/A Fog , Snow Light Snow
10:00 PM 20 °F - 17 °F 84%  in 0 mi South 18.4 mph - - Snow Light Snow
10:55 PM 19.4 °F 5.5 °F 17.6 °F 93% 29.83 in 0.1 mi South 15.0 mph - N/A Fog , Snow Light Snow
11:55 PM 19.4 °F 4.5 °F 17.6 °F 93% 29.83 in 0.1 mi South 17.3 mph - N/A Fog , Snow Light Snow